Temperature
9 7 7 8 9 9 9 9 9 10 10 10 9 9 9 10 10 10 11 11 11 12 12 11 11 12 11 11 12 12 12 12 11 11 11 11 11 11 11 11 11 11 11 11
7 8 9 9 9 9 9 9 9 9 10 10 9 9 9 9 10 10 11 11 11 11 11 11 11 11 11 11 11 11 11 11 11 11 11 11 11 11 10 10 11 11 11 10
8 8 9 9 9 9 9 8 8 9 9 9 9 8 9 9 10 11 11 12 11 11 11 11 11 11 11 11 11 11 11 11 11 11 10 10 10 10 10 10 10 10 10 10
8 9 9 9 9 9 8 9 9 9 7 7 8 7 8 9 9 9 10 11 11 11 11 11 11 11 11 11 11 11 10 10 10 10 10 10 10 10 10 9 9 9 9 9
8 8 9 9 9 9 8 9 8 8 7 7 7 7 7 8 9 9 9 10 11 11 11 11 11 11 11 11 11 11 10 10 10 10 10 9 9 9 9 9 9 9 9 9
8 9 9 9 9 9 8 8 8 6 6 7 7 7 7 7 9 9 9 10 11 11 11 11 11 11 11 11 10 10 10 10 10 10 9 9 9 9 9 9 9 9 9 9
7 8 8 9 8 8 7 6 6 6 6 7 7 7 7 8 8 8 9 10 11 11 11 11 11 11 11 10 10 10 10 10 9 9 9 9 9 9 8 8 8 8 8 8
7 7 8 8 8 8 7 7 6 7 6 6 7 7 7 8 9 10 10 11 11 11 11 11 11 11 10 10 10 10 9 9 9 9 9 9 8 8 8 8 8 8 8 8
6 7 8 8 8 8 8 6 7 5 5 5 6 6 8 9 8 9 9 10 10 11 11 10 10 10 10 10 9 9 9 9 9 8 8 8 8 8 8 8 7 7 7 7
7 6 7 7 8 8 7 7 5 5 6 6 6 6 7 8 8 8 8 9 10 10 10 10 10 10 9 9 9 9 8 8 8 8 8 8 8 7 7 7 7 7 7 7
7 6 6 6 6 7 7 7 6 5 5 5 6 7 8 8 8 8 8 9 10 10 10 10 9 9 9 9 9 9 8 8 8 8 7 7 7 7 7 7 7 7 7 7
6 4 4 5 6 7 6 6 5 5 5 4 4 6 8 7 8 8 8 9 10 9 9 9 9 9 9 9 8 8 8 8 8 7 7 7 7 7 6 6 6 6 6 6
6 5 5 6 6 6 6 6 6 5 4 3 4 6 7 7 8 8 9 9 9 9 9 9 9 9 8 8 8 8 8 7 7 7 7 7 6 6 6 6 6 6 6 6
6 4 4 6 6 6 5 6 6 5 4 4 4 5 7 7 7 7 8 9 9 9 9 9 8 8 8 8 7 7 7 7 7 7 7 7 6 6 6 6 5 5 5 5
5 4 4 4 5 5 5 5 5 4 4 4 5 5 6 6 6 7 8 8 8 8 8 8 8 8 8 7 7 7 7 7 7 6 6 6 6 6 5 5 5 5 5 5
4 4 4 4 4 4 4 5 5 5 5 5 5 5 6 7 8 8 8 8 8 8 8 8 7 7 7 7 7 7 7 6 6 6 6 6 5 5 5 5 5 5 4 4
3 3 4 3 3 4 4 5 5 4 4 5 5 6 6 6 6 7 8 8 7 7 7 7 7 7 7 7 6 6 6 6 6 6 6 5 5 5 5 5 5 4 4 4
3 3 3 3 3 4 6 6 5 5 5 5 5 5 6 6 7 8 8 7 7 7 7 7 7 6 6 6 6 6 6 5 5 5 5 5 5 5 5 5 4 4 4 4
3 3 3 3 3 3 5 6 5 5 5 5 5 5 6 7 6 6 7 7 7 7 7 6 6 6 6 6 5 5 5 5 5 5 5 5 5 4 4 4 4 4 4 4
2 3 3 3 3 4 6 6 7 6 5 6 5 5 6 5 4 5 7 7 6 6 6 6 6 6 5 5 5 5 5 5 5 4 4 4 4 4 4 4 4 4 3 3
2 2 2 3 3 3 4 5 6 5 5 6 6 6 6 5 5 6 6 6 6 6 6 5 5 5 5 5 5 5 5 4 4 4 4 4 4 4 4 4 3 3 3 3
2 1 2 2 2 3 5 4 4 5 6 7 6 6 6 6 6 6 6 6 5 5 5 5 5 5 5 4 4 4 4 4 4 4 4 3 3 3 3 3 3 3 2 2
2 3 2 3 4 5 6 6 7 7 6 6 6 6 6 5 5 5 5 5 5 5 4 4 4 4 4 4 4 4 4 4 3 3 3 3 3 3 3 3 2 2 2 2
1 2 2 2 2 4 6 6 6 6 6 5 5 5 5 5 5 4 4 4 4 4 4 4 3 3 4 4 3 3 3 3 3 3 3 3 3 3 3 2 2 2 2 2
2 2 1 2 3 4 5 6 6 5 5 5 5 5 4 4 4 4 4 4 3 3 3 3 3 3 3 3 3 3 3 3 3 3 3 3 2 2 2 2 2 2 2 1
1 2 2 3 4 3 4 5 5 5 4 4 4 4 4 4 3 3 3 3 3 3 3 2 2 3 3 3 3 3 2 2 2 2 2 2 2 2 2 2 2 1 1 1
Wind_Speed
4 6 3 2 1 2 2 1 1 2 1 1 3 7 9 6 5 7 7 6 6 5 4 2 3 3 3 2 2 2 1 1 2 1 1 1 1 2 2 2 3 3 4 4
6 4 3 2 1 2 3 2 2 3 3 2 3 7 8 6 6 7 8 8 7 5 3 3 3 3 3 2 2 2 2 1 1 1 1 1 1 1 2 2 3 3 3 3
4 2 3 3 4 4 3 1 1 2 5 4 3 7 5 4 3 3 5 6 6 8 8 6 4 4 3 3 3 3 2 2 1 1 1 1 1 2 2 2 2 3 3 4
2 3 3 4 3 3 1 2 1 1 4 4 2 3 7 4 3 4 5 5 6 6 6 6 5 4 5 5 4 3 3 2 1 1 1 1 1 1 2 2 2 3 3 3
2 2 3 3 2 1 2 2 1 1 1 3 2 2 8 3 4 6 6 7 6 6 6 6 6 6 6 5 4 3 3 2 2 2 2 2 1 2 2 2 3 3 3 3
1 2 1 1 2 0 1 3 4 4 4 2 3 4 7 4 6 5 5 6 6 5 5 5 5 4 4 3 3 3 3 3 2 2 2 3 3 3 3 3 3 3 2 2
5 4 2 1 3 4 5 5 4 5 3 5 3 3 8 7 6 6 5 5 5 5 5 4 4 4 4 4 4 4 4 4 3 3 3 3 4 4 4 4 3 3 3 3
2 5 3 1 1 0 1 4 4 3 4 5 4 5 7 6 3 2 3 4 4 5 5 5 5 5 5 5 5 4 4 4 4 4 4 4 4 3 4 4 4 4 3 3
2 4 3 1 1 2 1 1 4 4 1 3 6 7 7 2 1 1 2 3 3 4 5 5 5 5 5 5 5 5 5 5 4 4 4 4 4 4 5 5 4 3 3 3
3 3 4 3 1 0 2 3 4 3 1 4 6 6 5 5 4 3 3 3 3 3 3 4 4 4 4 4 4 4 5 5 5 4 4 4 5 5 5 4 4 4 4 3
2 2 4 2 3 4 3 2 3 3 3 3 4 7 6 7 6 5 5 4 4 5 5 5 4 4 4 3 3 3 4 4 4 5 5 5 5 5 4 4 5 4 4 3
2 3 3 6 5 3 5 6 6 4 4 4 4 8 6 5 4 4 4 4 4 4 4 4 4 4 3 4 4 4 4 5 5 5 4 5 5 4 5 5 5 4 4 4
3 3 2 5 2 1 3 4 5 4 3 5 5 8 4 1 1 3 4 5 5 5 5 4 3 4 4 5 5 5 5 6 5 4 4 5 5 5 6 6 5 4 4 4
3 4 6 7 5 3 5 6 5 5 5 6 10 12 9 6 6 6 5 6 6 6 5 4 4 5 5 5 5 5 6 5 5 5 5 5 6 6 6 6 5 5 5 5
4 4 7 9 9 8 11 12 11 13 11 11 10 12 14 10 9 8 6 6 6 6 6 5 5 5 5 5 5 5 6 5 5 5 6 7 6 6 5 5 5 5 5 5
3 4 4 7 8 9 13 16 15 15 13 16 15 17 14 10 7 7 7 7 6 6 6 6 5 5 6 6 6 6 6 6 5 5 7 6 6 5 5 6 5 5 5 5
4 4 3 6 5 6 11 12 13 9 9 10 15 14 8 6 7 8 7 6 6 6 6 6 6 7 7 7 6 6 6 5 5 6 6 6 6 6 6 6 5 6 6 5
7 5 3 4 3 8 8 4 7 9 10 11 10 8 7 8 8 6 6 6 5 5 6 6 6 6 6 6 6 6 5 5 5 6 6 6 6 6 6 6 6 6 5 6
8 7 5 3 5 10 9 5 5 6 7 7 10 9 7 4 2 4 4 4 5 6 6 7 7 6 6 6 6 5 5 5 5 6 7 7 6 6 6 6 7 6 5 6
4 6 6 5 6 8 7 2 2 2 6 4 5 5 4 0 2 6 5 5 6 6 5 6 6 5 6 6 5 5 6 6 7 8 8 7 6 6 7 7 7 5 5 6
4 5 9 10 9 9 7 3 3 3 6 3 3 4 4 5 7 6 5 6 6 6 6 6 6 6 7 6 4 6 6 8 8 7 6 6 6 7 7 6 5 5 5 5
9 8 8 7 9 10 4 4 5 7 4 3 3 4 5 7 7 7 6 6 6 6 7 6 6 7 7 5 5 6 8 8 6 6 6 7 7 6 6 6 5 5 5 5
9 10 7 10 10 6 4 7 7 5 5 5 5 6 6 7 7 7 7 7 7 8 8 7 7 8 7 6 6 8 9 6 5 6 6 7 6 6 5 5 6 5 5 5
6 5 5 7 10 9 8 8 6 5 5 6 7 7 6 8 9 9 8 8 8 8 7 7 7 7 8 7 7 8 8 6 5 7 7 6 6 6 5 5 5 5 6 6
8 5 6 10 10 8 7 6 7 7 7 8 7 7 8 9 10 9 8 8 8 7 7 6 7 8 9 7 8 8 7 5 6 7 7 6 6 6 6 6 6 7 7 8
8 8 9 11 8 7 8 7 7 7 8 8 8 8 7 7 9 9 8 8 7 8 7 7 7 8 8 8 8 8 6 6 6 7 7 6 5 5 5 5 6 9 9 11
Wind_Direction
35 56 34 301 240 202 166 141 287 276 302 345 251 262 269 264 226 225 227 225 216 213 210 186 157 142 128 116 117 125 121 87 63 56 56 36 346 337 344 344 4 14 16 16
45 26 302 293 16 69 84 76 347 322 339 325 281 279 270 253 226 217 216 216 209 194 189 188 174 155 151 159 165 163 173 150 120 115 151 199 232 286 294 320 346 353 3 5
99 273 315 38 39 57 44 113 252 303 342 1 348 317 297 280 254 235 214 208 202 191 191 191 184 186 181 192 199 196 196 179 163 143 95 48 27 356 343 338 335 337 350 357
53 330 21 50 28 59 4 297 293 3 25 321 42 301 288 278 276 250 231 208 207 202 193 192 188 194 204 210 208 204 198 192 190 160 139 150 183 255 275 294 300 319 342 349
358 356 37 45 326 48 237 289 323 14 71 338 334 196 285 301 256 249 236 219 211 206 196 197 201 205 209 205 203 208 200 203 200 186 184 189 235 257 285 304 309 315 324 332
330 329 49 253 301 337 338 26 37 45 66 318 240 185 276 252 230 241 240 220 207 203 202 206 212 204 207 205 205 206 204 221 216 207 207 210 233 255 279 291 294 296 301 314
349 338 337 4 15 14 49 65 29 1 358 260 267 210 254 261 241 217 216 214 201 195 197 205 207 207 210 209 213 211 209 227 229 220 225 229 233 234 245 260 267 278 289 296
6 308 300 336 149 206 354 121 148 213 249 288 309 243 262 286 281 212 193 187 185 197 209 213 213 209 212 215 215 216 219 231 231 226 235 240 238 235 245 249 251 258 265 270
174 267 303 280 216 145 123 151 169 144 259 277 279 284 301 318 337 139 159 163 194 214 218 222 222 216 219 221 220 218 223 235 238 233 237 244 243 240 249 254 249 255 262 268
165 263 288 298 36 340 160 149 95 127 207 275 290 275 250 250 245 226 203 197 220 231 233 234 234 232 233 227 226 224 223 229 235 236 237 242 243 243 247 249 251 255 257 259
144 190 304 336 212 208 172 169 151 153 178 195 274 273 231 219 220 217 221 226 231 233 236 237 237 240 239 237 231 232 237 241 245 243 241 245 250 249 247 244 246 247 251 250
149 141 262 261 257 228 195 192 163 179 229 201 225 270 272 231 223 205 222 244 252 246 245 245 241 239 239 240 240 239 240 242 244 241 240 244 250 251 248 249 249 244 245 245
143 136 321 328 319 292 230 214 190 172 177 202 217 261 300 318 270 255 253 259 260 253 248 248 249 249 247 249 251 249 247 247 249 244 241 246 248 248 249 250 249 243 239 242
137 177 199 222 231 212 245 243 212 187 212 234 232 254 275 277 278 284 278 263 258 258 251 249 252 253 255 255 253 255 257 252 253 250 249 250 248 245 247 249 247 242 236 237
146 223 240 254 261 253 249 249 232 224 221 229 248 248 260 259 258 260 259 260 263 265 263 256 256 257 260 263 263 261 261 259 253 251 253 254 255 251 248 247 247 242 235 236
173 226 261 273 262 259 264 255 239 235 231 239 254 265 260 257 252 256 260 255 254 260 260 261 262 261 261 260 261 262 261 258 249 248 252 258 260 257 249 246 245 242 241 240
198 199 247 274 298 315 269 243 222 216 215 212 237 250 262 260 255 250 249 247 246 253 258 261 261 256 256 255 252 255 258 260 254 253 258 258 255 254 252 246 240 240 240 238
189 191 219 274 325 253 245 231 202 218 238 223 233 249 251 246 250 247 233 223 245 259 260 261 261 262 262 256 254 257 262 261 258 259 259 256 251 253 254 245 241 241 239 237
189 183 203 227 255 273 284 257 195 203 261 230 230 249 258 267 305 289 241 220 235 246 250 253 253 257 260 261 257 257 261 260 258 260 260 258 251 252 252 248 246 242 238 241
171 182 199 215 237 249 253 254 174 130 270 257 219 237 250 130 288 272 254 253 259 260 257 257 260 261 265 266 259 255 261 262 260 259 259 260 252 247 247 248 247 243 237 241
160 193 214 226 240 261 259 240 127 201 254 269 219 222 216 217 236 256 266 265 259 261 263 262 262 261 260 261 251 253 259 258 260 261 262 262 256 249 249 249 246 243 239 242
185 190 204 205 225 250 230 148 192 230 262 257 240 235 235 246 258 263 264 265 267 271 271 267 264 265 263 254 244 256 260 261 262 261 261 261 257 254 252 245 246 239 232 237
205 201 199 204 223 254 218 216 230 229 237 247 252 256 253 259 264 266 265 266 269 267 268 266 262 267 269 254 239 253 264 263 262 263 264 265 262 255 246 237 239 241 232 235
241 212 213 245 258 263 264 258 265 251 250 259 260 259 256 260 266 267 267 269 268 268 268 268 266 267 272 265 253 252 262 260 256 262 266 265 260 259 253 244 236 235 236 237
229 208 230 253 268 283 272 251 254 259 263 266 264 258 256 259 266 264 267 268 267 268 268 264 260 263 269 271 267 264 260 254 255 261 264 263 254 251 251 247 241 239 236 230
215 218 229 251 252 251 266 265 262 260 263 266 270 274 269 259 264 269 269 267 266 267 267 264 263 265 271 271 270 268 258 246 248 261 262 258 254 251 248 253 265 252 245 248
Height
1513 1517 1521 1519 1517 1517 1517 1519 1519 1516 1512 1513 1513 1511 1506 1504 1505 1505 1505 1505 1505 1506 1508 1509 1509 1510 1510 1511 1511 1511 1510 1510 1510 1510 1510 1509 1509 1509 1509 1509 1508 1507 1507 1506
1519 1521 1519 1516 1515 1515 1517 1520 1520 1516 1513 1513 1513 1511 1505 1502 1501 1501 1502 1502 1503 1505 1506 1507 1508 1508 1509 1509 1509 1509 1509 1508 1509 1508 1508 1507 1507 1506 1506 1506 1505 1504 1504 1503
1521 1522 1517 1517 1517 1517 1519 1521 1520 1519 1516 1514 1515 1512 1506 1501 1500 1500 1500 1500 1501 1503 1504 1505 1506 1507 1507 1508 1508 1508 1508 1507 1507 1507 1506 1505 1505 1504 1504 1503 1502 1502 1501 1501
1522 1519 1518 1518 1519 1519 1522 1519 1518 1518 1522 1525 1521 1526 1509 1503 1501 1499 1498 1499 1500 1501 1502 1503 1504 1505 1505 1506 1506 1506 1506 1506 1505 1505 1504 1503 1502 1502 1501 1500 1500 1499 1499 1498
1523 1521 1520 1521 1520 1519 1520 1518 1519 1519 1523 1526 1523 1526 1515 1505 1502 1498 1496 1496 1498 1499 1500 1501 1502 1503 1504 1504 1504 1505 1504 1504 1503 1503 1502 1501 1501 1500 1499 1498 1498 1496 1496 1495
1523 1522 1521 1521 1519 1519 1519 1520 1521 1525 1528 1529 1522 1526 1517 1507 1499 1496 1494 1494 1495 1497 1498 1500 1501 1501 1502 1502 1502 1502 1502 1501 1501 1500 1500 1499 1498 1498 1497 1496 1495 1494 1493 1492
1527 1524 1522 1521 1521 1521 1522 1528 1535 1534 1537 1530 1521 1522 1513 1498 1494 1493 1492 1492 1493 1495 1496 1497 1498 1499 1499 1499 1499 1499 1499 1498 1498 1497 1497 1496 1495 1495 1494 1493 1491 1490 1489 1489
1531 1531 1524 1522 1523 1524 1524 1527 1537 1537 1536 1532 1522 1519 1506 1495 1492 1491 1491 1492 1492 1494 1495 1496 1496 1496 1497 1497 1497 1496 1496 1495 1495 1495 1494 1493 1493 1492 1491 1490 1489 1487 1486 1485
1532 1530 1523 1522 1521 1522 1523 1528 1528 1536 1537 1536 1526 1515 1502 1494 1492 1491 1491 1492 1492 1493 1493 1494 1494 1494 1494 1494 1494 1494 1493 1493 1492 1492 1491 1490 1490 1489 1488 1486 1485 1484 1483 1482
1528 1530 1525 1523 1522 1522 1523 1525 1532 1535 1535 1532 1525 1518 1508 1497 1494 1492 1492 1491 1491 1492 1492 1492 1492 1492 1492 1491 1491 1491 1490 1490 1489 1489 1488 1487 1486 1485 1484 1483 1482 1481 1480 1479
1526 1531 1528 1525 1524 1523 1524 1525 1528 1534 1535 1534 1529 1515 1496 1493 1491 1491 1490 1490 1490 1490 1490 1490 1490 1490 1490 1489 1489 1488 1487 1487 1486 1485 1484 1483 1482 1481 1480 1479 1478 1477 1476 1475
1526 1531 1533 1526 1521 1519 1520 1521 1526 1531 1531 1533 1534 1515 1490 1489 1488 1488 1488 1489 1489 1489 1488 1488 1488 1487 1487 1486 1486 1485 1484 1483 1482 1481 1480 1479 1478 1477 1476 1475 1474 1473 1472 1471
1525 1530 1532 1525 1525 1522 1520 1519 1520 1524 1528 1531 1529 1509 1489 1488 1487 1487 1487 1487 1487 1486 1486 1485 1485 1484 1483 1483 1482 1481 1481 1480 1479 1477 1476 1475 1474 1473 1472 1471 1470 1469 1468 1467
1522 1527 1530 1523 1518 1518 1519 1517 1518 1522 1526 1524 1515 1501 1491 1489 1488 1486 1486 1485 1484 1483 1483 1482 1481 1481 1480 1479 1479 1478 1477 1476 1474 1473 1472 1470 1469 1468 1467 1466 1465 1465 1464 1463
1521 1525 1523 1520 1516 1516 1514 1512 1512 1514 1512 1512 1501 1498 1487 1486 1485 1483 1482 1482 1481 1480 1479 1479 1478 1477 1477 1476 1475 1473 1472 1471 1470 1469 1467 1466 1465 1464 1463 1462 1461 1460 1459 1458
1520 1522 1520 1517 1512 1512 1509 1502 1502 1502 1501 1499 1495 1489 1480 1480 1480 1479 1479 1478 1477 1476 1476 1475 1475 1474 1473 1472 1470 1469 1468 1467 1465 1464 1463 1461 1460 1459 1458 1457 1456 1455 1454 1454
1519 1520 1520 1518 1513 1510 1504 1491 1491 1492 1488 1489 1488 1481 1477 1477 1476 1475 1475 1474 1473 1473 1472 1471 1470 1470 1468 1467 1466 1464 1463 1462 1460 1459 1458 1456 1455 1454 1453 1452 1451 1450 1449 1449
1514 1517 1518 1516 1515 1509 1487 1480 1480 1482 1479 1479 1476 1474 1473 1472 1471 1471 1471 1470 1470 1469 1468 1467 1466 1465 1464 1462 1461 1460 1458 1457 1455 1454 1452 1451 1450 1449 1448 1447 1446 1445 1444 1444
1506 1511 1515 1515 1512 1500 1484 1477 1476 1478 1476 1471 1471 1470 1470 1469 1469 1468 1467 1467 1467 1466 1465 1463 1462 1461 1459 1458 1456 1454 1453 1451 1450 1448 1447 1446 1445 1443 1442 1442 1441 1440 1439 1438
1504 1506 1510 1510 1507 1497 1478 1473 1471 1475 1475 1468 1467 1467 1467 1468 1471 1467 1464 1464 1463 1462 1461 1459 1458 1456 1454 1453 1451 1449 1447 1446 1444 1443 1441 1440 1439 1438 1437 1436 1435 1435 1434 1433
1505 1506 1505 1503 1500 1487 1475 1472 1472 1479 1472 1466 1465 1464 1465 1465 1465 1463 1461 1460 1459 1457 1456 1454 1453 1451 1449 1448 1446 1444 1442 1440 1439 1437 1436 1435 1434 1433 1432 1431 1430 1429 1428 1428
1496 1499 1498 1496 1495 1485 1469 1470 1472 1469 1465 1464 1463 1462 1462 1461 1459 1458 1457 1455 1454 1452 1451 1449 1447 1445 1444 1442 1441 1438 1437 1435 1434 1432 1430 1429 1428 1427 1426 1425 1424 1424 1423 1422
1485 1482 1482 1481 1475 1466 1464 1464 1463 1462 1462 1461 1461 1459 1458 1457 1455 1454 1452 1450 1449 1447 1445 1444 1442 1439 1438 1437 1435 1433 1431 1430 1428 1426 1424 1423 1422 1421 1420 1419 1418 1418 1417 1416
1476 1473 1475 1473 1465 1462 1461 1460 1459 1459 1458 1457 1457 1455 1454 1452 1450 1449 1447 1445 1443 1441 1440 1438 1436 1434 1432 1431 1429 1428 1426 1424 1422 1420 1419 1417 1416 1415 1415 1414 1413 1412 1411 1410
1469 1469 1468 1465 1460 1457 1455 1455 1455 1454 1453 1452 1451 1450 1448 1446 1444 1443 1440 1439 1437 1435 1434 1432 1430 1428 1426 1425 1423 1422 1420 1418 1416 1414 1413 1412 1411 1409 1408 1407 1407 1406 1405 1405
1460 1461 1462 1456 1454 1454 1451 1450 1450 1449 1448 1446 1445 1443 1442 1440 1438 1436 1434 1433 1431 1429 1428 1426 1424 1422 1420 1419 1417 1416 1414 1412 1410 1408 1407 1406 1405 1403 1402 1401 1400 1399 1399 1398